Вернуться в каталог

FENGYUN 1C DEB

АктивенPO
NORAD 38166·DEBRIS·🇨🇳 China

Запущен May 10, 1999 с Taiyuan Satellite Launch Center

Loading…

Ближайшие Пролёты (ближайшие 24 часа)

TLE

СвежийSource: Space-Track

Эпоха: Sep 14, 2026, 14:04 UTC

1 38166U 99025ERP 26257.58664196  .00004172  00000-0  14711-2 0  9996
2 38166  99.0828  18.8501 0049241 320.0977  39.6591 14.34663718677234

Отслеживайте FENGYUN 1C DEB в реальном времени с AllMySat

Download on the App Store